Tracking 29892 objects as of 21-Nov-2024
HD Live streaming from Space Station
objects crossing your sky now

COSMOS 2558

Track COSMOS 2558 now!
10-day predictions


NORAD ID: 53323
Int'l Code: 2022-089A
Perigee: 465.1 km
Apogee: 475.6 km
Inclination: 97.2 °
Period: 93.9 minutes
Semi major axis: 6841 km
RCS: Unknown
Launch date: August 1, 2022
Source: Commonwealth of Independent States (former USSR) (CIS)
Launch site: PLESETSK MISSILE AND SPACE COMPLEX (PKMTR)
Your satellite tracking list
Your tracking list is empty




NASA's NSSDC Master Catalog

Two Line Element Set (TLE):
1 53323U 22089A   24325.89971551  .00031542  00000-0  95047-3 0  9991
2 53323  97.2418  60.4428 0007704 179.1378 180.9880 15.34235835129260
Source of the keplerian elements: AFSPC